This is the latest recevied weather packets stored in our database for station/object VK6JI-11. If no packets are shown the sender has not sent any weather packets the latest 10 day(s).
| Time | Temp. | Humidity | Pressure | Rain* | Wind** | Luminosity | Snow |
|---|---|---|---|---|---|---|---|
| 1778222710 | 25° C | 41% | 1024.7 hPa | 0 mm | - | 464 W/m² | - |
| 1778222589 | 25° C | 41% | 1024.7 hPa | 0 mm | - | 471 W/m² | - |
| 1778222469 | 25° C | 41% | 1024.8 hPa | 0 mm | - | 475 W/m² | - |
| 1778222349 | 25° C | 42% | 1024.7 hPa | 0 mm | - | 478 W/m² | - |
| 1778222228 | 25° C | 42% | 1024.8 hPa | 0 mm | - | 484 W/m² | - |
| 1778222108 | 25° C | 42% | 1024.8 hPa | 0 mm | - | 487 W/m² | - |
| 1778221987 | 25° C | 42% | 1024.8 hPa | 0 mm | - | 492 W/m² | - |
| 1778221866 | 25° C | 41% | 1024.9 hPa | 0 mm | - | 498 W/m² | - |
| 1778221747 | 25° C | 41% | 1024.8 hPa | 0 mm | - | 503 W/m² | - |
| 1778221628 | 25° C | 41% | 1024.8 hPa | 0 mm | - | 508 W/m² | - |
| 1778221505 | 25° C | 42% | 1024.8 hPa | 0 mm | - | 510 W/m² | - |
| 1778221385 | 25° C | 42% | 1024.8 hPa | 0 mm | - | 515 W/m² | - |
| 1778221265 | 25° C | 44% | 1024.9 hPa | 0 mm | - | 519 W/m² | - |
| 1778221145 | 25° C | 44% | 1024.9 hPa | 0 mm | - | 522 W/m² | - |
| 1778221024 | 25° C | 43% | 1024.9 hPa | 0 mm | - | 528 W/m² | - |
| 1778220904 | 25° C | 42% | 1024.9 hPa | 0 mm | - | 529 W/m² | - |
| 1778220785 | 25° C | 43% | 1025.1 hPa | 0 mm | - | 536 W/m² | - |
| 1778220665 | 25° C | 42% | 1025 hPa | 0 mm | - | 540 W/m² | - |
| 1778220544 | 25° C | 42% | 1025 hPa | 0 mm | - | 547 W/m² | - |
| 1778220424 | 25° C | 42% | 1025 hPa | 0 mm | - | 549 W/m² | - |
| 1778220304 | 25° C | 42% | 1025.1 hPa | 0 mm | - | 550 W/m² | - |
| 1778220182 | 25° C | 43% | 1025.2 hPa | 0 mm | - | 554 W/m² | - |
| 1778220062 | 24.44° C | 43% | 1025.1 hPa | 0 mm | - | 556 W/m² | - |
| 1778219943 | 24.44° C | 44% | 1025.2 hPa | 0 mm | - | 561 W/m² | - |
| 1778219823 | 24.44° C | 43% | 1025.3 hPa | 0 mm | - | 564 W/m² | - |
* Rain latest hour (hover to see other rain measurements)
** Current wind speed in m/s (hover to see current wind gust speed)